Terminal Aerodrome Forecast
Issued by NWS

Home | Current Version | Previous Version | Text Only | Print | Product List | Glossary On
Versions: 1 2 3 4 5 6 7 8 9 10 11 12 13 14 15 16 17 18 19 20 21 22 23
976
FTUS41 KGYX 120857 AAA
TAFHIE
TAF AMD
KHIE 120857Z 1209/1306 21005KT P6SM SCT040
     FM121800 21005KT P6SM OVC050
     FM130000 VRB03KT P6SM -SHSN OVC040=

USA.gov is the U.S. government's official web portal to all federal, state and local government web resources and services.